[[{"header":{"parameterUnit":"m.s-1","parameterCategory":1,"la1":30.2991,"la2":30.254,"lo1":-89.0895,"lo2":-89.0444,"dy":0.0017,"dx":0.0017,"nx":28,"ny":28,"refTime":"2024-05-01T09:00:00:Z","depth":0,"parameterNumber":2,"parameterNumberName":"U-component_of_WINDS"},"data":[0,0,0,0,0,0,0,0,0,0,0,0,0,0,0,0,0,0,0,0,0,0,0,0,0,0,0,0,0,0,0,0,0,0,0,0,0,0,0,0,0,0,0,0,0,0,0,0,0,0,0,0,0,0,0,0,0,0,0.5966,0.5966,0,0.5926,0.5925,0.5925,0.588,0.5879,0.5878,0.5878,0.5836,0.5835,0.5835,0,0,0,0,0,0,0,0,0,0,0,0,0,0.6005,0.6005,0.5966,0.5966,0.5965,0.5926,0.5925,0.5925,0.588,0.5879,0.5878,0.5877,0.5836,0.5835,0.5835,0,0,0,0,0,0,0,0,0,0,0,0,0,0.5979,0.6005,0.5966,0.5938,0.5935,0.5926,0.5925,0.5924,0.588,0.5879,0.5878,0.5877,0.5836,0.5835,0.5835,0.585,0,0,0.5832,0.5832,0,0,0,0,0,0,0,0,0.598,0.5978,0.5943,0.594,0.5937,0.5907,0.5923,0.5899,0.588,0.5901,0.5878,0.5877,0.586,0.5857,0.5852,0.5848,0.5846,0.5832,0.5832,0.5831,0.5831,0,0,0,0,0,0,0,0.5982,0.5979,0.595,0.5942,0.5939,0.5928,0.5923,0.5919,0.5887,0.5899,0.5896,0.5892,0.5858,0.5853,0.5851,0.5845,0.5832,0.5832,0.5831,0.5831,0.5852,0.5853,0,0,0,0,0,0,0.5988,0.5981,0.5951,0.5949,0.5957,0.5928,0.5922,0.5917,0.5886,0.5881,0.5892,0.589,0.5854,0.5851,0.5849,0.5864,0.5831,0.5831,0.583,0.5851,0.5852,0.5853,0,0,0,0,0,0,0.5989,0.5986,0.5953,0.5964,0.5959,0.5928,0.5923,0.5917,0.5911,0.5881,0.5875,0.5893,0.5854,0.585,0.585,0.5862,0.583,0.583,0.5849,0.5851,0.5852,0.5895,0,0,0,0,0,0,0.5991,0.5987,0.5992,0.5964,0.5958,0.5955,0.5924,0.5917,0.591,0.5906,0.588,0.5875,0.5853,0.5851,0.5849,0.586,0.5829,0.5848,0.585,0.5852,0.5892,0.5898,0.5902,0,0,0,0,0,0.5992,0.6005,0.5992,0.5989,0.5964,0.5955,0.5952,0.5926,0.5911,0.5916,0.5897,0.5875,0.5862,0.5852,0.5849,0.586,0.5847,0.585,0.5852,0.589,0.5897,0.5902,0,0,0,0,0,0,0.6034,0.6001,0.5986,0.5991,0.5976,0.5948,0.5953,0.5934,0.5923,0.592,0.5889,0.5883,0.5887,0.5874,0.5863,0.5873,0.5851,0.5853,0.5881,0.5887,0.5892,0.5895,0.5828,0,0,0,0,0,0.6044,0.604,0.6011,0.6018,0.6011,0.5984,0.5979,0.5961,0.5944,0.5938,0.5919,0.5904,0.5896,0.5891,0.5882,0.5891,0.5884,0.5897,0.5902,0.5907,0.5908,0.5912,0.5917,0.586,0.586,0.586,0,0,0.6064,0.6046,0.6045,0.6026,0.6012,0.6009,0.5979,0.5976,0.5973,0.5937,0.5936,0.5922,0.5903,0.5907,0.5908,0.5896,0.5923,0.591,0.5913,0.5912,0.5915,0.592,0.5925,0.5862,0.5862,0.5861,0,0,0.6098,0.6084,0.6088,0.6076,0.6056,0.6038,0.6039,0.6014,0.6003,0.6002,0.5975,0.5972,0.5959,0.5946,0.5938,0.5971,0.595,0.5969,0.5994,0.5998,0.6003,0.6007,0.6017,0.6022,0.5971,0.5971,0.5971,0,0.6126,0.6119,0.6093,0.6092,0.6084,0.6053,0.6057,0.6046,0.6025,0.602,0.6008,0.5992,0.5977,0.5978,0.5986,0.5981,0.5981,0.597,0.6004,0.6008,0.6011,0.6021,0.6025,0.5973,0.5973,0.5973,0.5972,0,0.6153,0.6149,0.6155,0.6135,0.6129,0.613,0.6104,0.6101,0.6084,0.6068,0.6067,0.6048,0.6035,0.6035,0.6018,0.6034,0.6027,0.601,0.5987,0.6019,0.6028,0.6032,0.5976,0.5975,0.5975,0.5974,0,0,0.621,0.6178,0.618,0.6171,0.6148,0.6144,0.6145,0.6133,0.6131,0.6118,0.6117,0.6108,0.6093,0.6084,0.6066,0.6069,0.6096,0.6052,0.6051,0.606,0.6112,0.6124,0.6128,0.6083,0.6084,0.6084,0.6113,0,0.6239,0.6238,0.6215,0.6221,0.6216,0.6188,0.6189,0.6175,0.616,0.6155,0.6138,0.6132,0.6112,0.6107,0.611,0.6092,0.6105,0.609,0.6081,0.6081,0.6085,0.6133,0.6145,0.6173,0.6116,0.6117,0.6117,0,0.6272,0.6262,0.6267,0.6245,0.6242,0.6243,0.623,0.6226,0.621,0.6199,0.6191,0.617,0.617,0.615,0.6148,0.6138,0.6134,0.6125,0.6126,0.6122,0.61,0.613,0.6182,0.6186,0.6123,0.6122,0.6122,0,0.6312,0.63,0.6301,0.6294,0.6269,0.627,0.626,0.6243,0.6238,0.6227,0.6223,0.6213,0.6207,0.62,0.6177,0.6165,0.6179,0.6157,0.6169,0.617,0.6171,0.6171,0.6222,0.6171,0.6171,0.6171,0.6171,0,0.6346,0.635,0.6318,0.6319,0.6323,0.6298,0.6303,0.6289,0.6275,0.6273,0.6249,0.6247,0.6219,0.6214,0.6197,0.6199,0.6196,0.6187,0.6182,0.6189,0.619,0.6184,0.6181,0.6172,0.6172,0.6172,0.6172,0,0.639,0.6369,0.6369,0.6346,0.634,0.6344,0.6324,0.6324,0.6308,0.6306,0.6304,0.628,0.6273,0.6251,0.6239,0.6228,0.6234,0.6226,0.6239,0.6236,0.6249,0.6248,0.6296,0.6301,0.6249,0.625,0.625,0,0.6412,0.6414,0.6392,0.6389,0.638,0.6375,0.637,0.6346,0.6341,0.6325,0.6327,0.6319,0.631,0.6302,0.6283,0.6274,0.6264,0.6282,0.6262,0.6269,0.6263,0.6263,0.6263,0.6286,0.6286,0.6287,0.6287,0,0.6453,0.6443,0.6436,0.6426,0.6421,0.6412,0.6401,0.64,0.6374,0.637,0.6364,0.6358,0.6346,0.6338,0.6326,0.6316,0.6297,0.6294,0.6296,0.6302,0.6309,0.6304,0.6249,0.6292,0.6292,0.6292,0.6291,0.6291,0.6486,0.6487,0.6471,0.6465,0.6455,0.6446,0.6445,0.643,0.6424,0.6413,0.64,0.6395,0.6381,0.6363,0.6354,0.635,0.634,0.6343,0.6344,0.6344,0.6347,0.6311,0.6348,0.6348,0.6348,0.6347,0.6347,0,0.6524,0.6514,0.6508,0.6495,0.649,0.6475,0.6463,0.646,0.6456,0.6444,0.6437,0.643,0.6423,0.6405,0.6396,0.6396,0.6387,0.6394,0.6393,0.6391,0.6357,0.6356,0.6401,0.6401,0.6401,0.6401,0.6401,0.6401,0.6544,0.6545,0.6533,0.653,0.6519,0.6514,0.6509,0.6501,0.6491,0.6485,0.6479,0.6467,0.6453,0.6443,0.6436,0.6431,0.6428,0.6438,0.643,0.6398,0.6393,0.6388,0.6387,0.6438,0.6438,0.6463,0.6464,0.6464]},{"header":{"parameterUnit":"m.s-1","parameterCategory":1,"la1":30.2991,"la2":30.254,"lo1":-89.0895,"lo2":-89.0444,"dy":0.0017,"dx":0.0017,"nx":28,"ny":28,"refTime":"2024-05-01T09:00:00:Z","depth":0,"parameterNumber":3,"parameterNumberName":"V-component_of_WINDS"},"data":[0,0,0,0,0,0,0,0,0,0,0,0,0,0,0,0,0,0,0,0,0,0,0,0,0,0,0,0,0,0,0,0,0,0,0,0,0,0,0,0,0,0,0,0,0,0,0,0,0,0,0,0,0,0,0,0,0,0,1.5791,1.5792,0,1.5965,1.5967,1.5969,1.5988,1.5987,1.5985,1.5983,1.6158,1.6164,1.617,0,0,0,0,0,0,0,0,0,0,0,0,0,1.5468,1.5474,1.579,1.5793,1.5795,1.5965,1.5967,1.597,1.5989,1.5987,1.5984,1.5982,1.6156,1.6163,1.6171,0,0,0,0,0,0,0,0,0,0,0,0,0,1.5622,1.5476,1.579,1.5825,1.583,1.5964,1.5967,1.597,1.5989,1.5986,1.5984,1.5981,1.6153,1.6162,1.6172,1.6282,0,0,1.6201,1.6205,0,0,0,0,0,0,0,0,1.5613,1.5633,1.5818,1.5823,1.5828,1.5952,1.5918,1.6075,1.599,1.5928,1.5983,1.598,1.6091,1.6106,1.6144,1.629,1.6298,1.6201,1.6207,1.6211,1.6214,0,0,0,0,0,0,0,1.5602,1.5626,1.5859,1.582,1.5827,1.583,1.5849,1.5947,1.6022,1.5934,1.5935,1.5956,1.6094,1.6135,1.6148,1.6301,1.6201,1.6209,1.6215,1.6219,1.6544,1.6547,0,0,0,0,0,0,1.5586,1.5617,1.5854,1.5865,1.5712,1.5838,1.5859,1.5915,1.6021,1.6035,1.5958,1.5956,1.612,1.6137,1.6154,1.629,1.6211,1.622,1.6225,1.6541,1.6544,1.6548,0,0,0,0,0,0,1.5579,1.5607,1.5847,1.5741,1.5772,1.5846,1.5909,1.592,1.5961,1.604,1.6053,1.5987,1.6119,1.6141,1.625,1.6296,1.6224,1.6233,1.6537,1.6542,1.6546,1.6562,0,0,0,0,0,0,1.5569,1.5604,1.5648,1.5742,1.5778,1.5941,1.5912,1.5925,1.5978,1.5977,1.607,1.6083,1.6118,1.6236,1.626,1.6308,1.624,1.6534,1.6539,1.6545,1.6558,1.6567,1.6574,0,0,0,0,0,1.5558,1.5645,1.5651,1.5679,1.5835,1.5944,1.5964,1.6004,1.5982,1.6026,1.6076,1.608,1.6287,1.6247,1.6274,1.6326,1.6531,1.6538,1.6544,1.6554,1.6565,1.6574,0,0,0,0,0,0,1.5554,1.5658,1.5665,1.5786,1.5856,1.5947,1.6004,1.6015,1.6091,1.6087,1.6132,1.6153,1.626,1.6303,1.6257,1.6437,1.6406,1.6419,1.6405,1.6416,1.6424,1.6411,1.6248,0,0,0,0,0,1.5567,1.5649,1.5735,1.5833,1.5868,1.593,1.5979,1.6004,1.6077,1.6107,1.6165,1.6235,1.6316,1.6368,1.6447,1.6564,1.6583,1.6612,1.662,1.6626,1.6637,1.67,1.6714,1.657,1.657,1.657,0,0,1.5596,1.5663,1.5711,1.5834,1.5891,1.5973,1.5955,1.6042,1.6103,1.612,1.6227,1.6271,1.6352,1.6465,1.6518,1.6505,1.6681,1.6635,1.6639,1.6647,1.6708,1.6722,1.6734,1.6574,1.6573,1.6573,0,0,1.5689,1.5749,1.5837,1.5894,1.5981,1.6021,1.6042,1.6131,1.6162,1.627,1.6284,1.6355,1.6494,1.655,1.6597,1.6709,1.6715,1.6733,1.6776,1.6837,1.6848,1.6859,1.6898,1.6911,1.6743,1.6743,1.6743,0,1.5713,1.5839,1.588,1.5967,1.602,1.6039,1.6127,1.618,1.6288,1.6323,1.6307,1.648,1.6536,1.6662,1.6689,1.6726,1.675,1.6723,1.6844,1.6854,1.6865,1.6902,1.6917,1.6745,1.6744,1.6744,1.6744,0,1.5863,1.5949,1.6009,1.6114,1.6173,1.626,1.6313,1.6367,1.6386,1.6427,1.6535,1.6603,1.6695,1.6726,1.6745,1.6854,1.6843,1.6835,1.6805,1.6879,1.6915,1.693,1.6747,1.6746,1.6746,1.6745,0,0,1.5961,1.6086,1.6107,1.6154,1.625,1.6317,1.6403,1.6494,1.654,1.6612,1.6685,1.68,1.6793,1.6846,1.6871,1.6925,1.7008,1.691,1.6912,1.6925,1.713,1.7136,1.7152,1.7012,1.7015,1.7017,1.7123,0,1.6065,1.6222,1.6261,1.6394,1.6473,1.6491,1.6566,1.6632,1.6672,1.6744,1.6787,1.6868,1.6853,1.6884,1.6938,1.6986,1.7049,1.6979,1.7078,1.7082,1.7058,1.7171,1.7178,1.7275,1.7138,1.714,1.7142,0,1.6208,1.6284,1.6426,1.651,1.6545,1.6612,1.6698,1.6766,1.684,1.6865,1.6923,1.6943,1.7031,1.6996,1.7118,1.7069,1.7111,1.7141,1.7145,1.7156,1.7117,1.7185,1.7308,1.7322,1.7165,1.7163,1.7161,0,1.6264,1.6402,1.6505,1.6544,1.6645,1.6692,1.6736,1.6807,1.6859,1.6932,1.6966,1.7048,1.7094,1.7156,1.7196,1.7167,1.7313,1.7282,1.7336,1.7335,1.7366,1.7364,1.7497,1.7393,1.7393,1.7393,1.7392,0,1.6377,1.6462,1.6531,1.6594,1.669,1.6732,1.6825,1.6869,1.6932,1.7002,1.7022,1.7086,1.7136,1.7206,1.7238,1.7333,1.7353,1.7374,1.7382,1.7373,1.737,1.7402,1.7396,1.7397,1.7396,1.7395,1.7394,0,1.6456,1.6506,1.6619,1.6705,1.6728,1.6795,1.6868,1.6928,1.6968,1.7056,1.7079,1.7141,1.7225,1.7271,1.7377,1.7397,1.7504,1.7507,1.7479,1.7482,1.7533,1.7527,1.7691,1.7714,1.7595,1.7596,1.7597,0,1.6525,1.6592,1.6685,1.6734,1.6779,1.6857,1.691,1.6953,1.7007,1.7095,1.7144,1.723,1.7301,1.7434,1.7487,1.7567,1.7573,1.7625,1.7585,1.7574,1.7573,1.7569,1.7575,1.7632,1.7633,1.7634,1.7634,0,1.6642,1.6663,1.6739,1.6823,1.6886,1.6954,1.7021,1.7059,1.7113,1.7172,1.7259,1.7314,1.7421,1.7505,1.7589,1.7632,1.7642,1.7646,1.7663,1.7655,1.7636,1.7646,1.7498,1.7643,1.7642,1.7641,1.7641,1.764,1.6718,1.6777,1.6852,1.6935,1.699,1.7052,1.7113,1.716,1.7234,1.7326,1.7346,1.7438,1.7507,1.7621,1.7666,1.7737,1.7727,1.775,1.7757,1.7762,1.7764,1.7624,1.7752,1.7752,1.7752,1.7752,1.7751,0,1.6835,1.6884,1.696,1.7054,1.7119,1.7123,1.7197,1.7251,1.7331,1.7396,1.7466,1.7564,1.7645,1.7704,1.7786,1.7831,1.7838,1.7851,1.7849,1.7858,1.7768,1.7746,1.7845,1.7845,1.7845,1.7845,1.7845,1.7845,1.6904,1.7004,1.7033,1.716,1.7208,1.7299,1.734,1.7397,1.7449,1.7559,1.7626,1.7665,1.7726,1.7813,1.7886,1.7901,1.793,1.7944,1.7959,1.7874,1.7864,1.7855,1.7834,1.795,1.795,1.8043,1.8044,1.8044]}]]